Location: ????????
(42.0597°N, 44.0950°E)
Time: 12:32:35
(UTC+00:00)

Daily predictions for brighter satellites

Satellite Brightness Start Highest point End
(mag) Time Altitude Azimuth Time Altitude Azimuth Time Altitude Azimuth
Cosmos 1812 Rocket 4.3 14:34:56 10° NNE 14:38:52 32° ENE 14:42:45 10° SE
Okean O Rocket 1.6 14:35:01 10° SSE 14:39:26 76° ENE 14:43:51 10° N
Iridium 4 Rocket 4.3 14:37:31 10° NNE 14:42:00 27° ENE 14:46:09 10° SE
X-37B 1.0 14:40:27 10° WNW 14:43:34 49° N 14:46:41 10° E
ISS -1.6 14:42:19 10° NW 14:44:40 17° N 14:47:01 10° NE
Cosmos 2278 Rocket 2.9 14:41:06 10° SSE 14:46:10 35° ESE 14:51:15 10° NE
CZ-4 R/B 2.7 14:43:47 10° ESE 14:46:43 20° ENE 14:49:38 10° NNE
NOSS 2-1 (E) 3.2 14:44:05 10° SW 14:47:25 65° NW 14:50:49 10° NNE
SKYMED 2 4.0 14:45:11 10° NNE 14:49:20 43° E 14:53:28 10° S
CORIOLIS 4.4 14:45:01 10° S 14:50:24 77° WSW 14:55:47 10° NNW
Okean-O 3.8 14:47:47 10° ESE 14:51:11 22° ENE 14:54:36 10° NNE
CZ-2C R/B 3.5 14:47:30 10° SE 14:52:39 44° ENE 14:58:04 10° N
CZ-4B R/B 3.7 14:47:51 10° S 14:53:25 72° WSW 14:59:05 10° NNW
ERS-2 3.3 14:51:30 10° NE 14:54:28 23° E 14:57:26 10° SSE
Cosmos 1346 Rocket 3.8 14:55:56 10° SSE 14:59:10 25° E 15:02:25 10° NE
Cosmos 1340 2.6 14:56:21 10° S 15:00:04 68° E 15:03:48 10° NNE
SMAP 4.3 14:56:52 10° S 15:01:20 46° W 15:05:49 10° NNW
Cosmos 1092 Rocket 3.9 14:58:47 10° S 15:04:56 75° E 15:11:04 10° N
ARGOS 4.1 15:01:20 10° ESE 15:05:34 24° ENE 15:09:48 10° NNE
Cosmos 1626 Rocket 4.2 15:07:33 10° SSW 15:11:54 61° W 15:16:18 10° N
Cosmos 1898 Rocket 3.9 15:07:07 10° SSW 15:12:20 68° WNW 15:17:34 10° NNE
SAR-Lupe-4 4.4 15:09:43 10° NE 15:12:56 30° E 15:16:07 10° SSE
Cosmos 372 Rocket 4.3 15:08:49 10° S 15:13:45 46° ESE 15:18:45 10° NNE
Cosmos 1455 3.7 15:10:36 10° NNW 15:14:13 40° W 15:17:49 10° SSW
Cosmos 405 3.0 15:12:27 10° N 15:15:55 55° E 15:19:21 10° SSE
CZ-2C R/B 3.9 15:12:50 10° NE 15:17:07 22° E 15:21:22 10° SE
Cosmos 1680 Rocket 4.3 15:14:34 10° NNW 15:19:42 56° WSW 15:24:46 10° S
PSLV R/B 4.2 15:18:11 10° NNE 15:22:16 48° E 15:26:20 10° S
Cosmos 2344 4.4 15:14:22 10° NNW 15:23:49 68° NE 15:37:03 10° SE
Meteor 2-15 4.5 15:17:47 10° N 15:23:53 58° ENE 15:29:54 10° SSE
Meteor 1-11 4.2 15:19:27 10° S 15:25:05 68° E 15:30:41 10° NNE
Cosmos 1328 4.2 15:21:46 10° SSW 15:25:44 66° W 15:29:41 10° N
Meteor 2-8 Rocket 4.4 15:20:06 10° N 15:26:15 86° E 15:32:23 10° S
NOSS 3-1 (C) 4.3 15:19:28 10° NW 15:27:11 79° WSW 15:36:00 10° SSE
MOS 1 Rocket 3.1 15:23:43 10° NNE 15:28:02 87° W 15:32:24 10° SSW
CZ-2D R/B 3.4 15:24:38 10° S 15:28:28 77° WSW 15:32:19 10° NNW
SAR-Lupe-1 4.2 15:25:33 10° NNE 15:29:03 49° E 15:32:31 10° S
CZ-4B R/B 2.5 15:29:12 10° N 15:32:19 42° WNW 15:35:22 10° SW
Cosmos-2242 2.9 15:30:12 10° N 15:34:29 66° E 15:38:47 10° SSE
Cosmos 1937 Rocket 4.1 15:29:54 10° SSW 15:35:07 59° WNW 15:40:24 10° NNE
Cosmos 2098 Rocket 4.4 15:28:21 10° S 15:35:44 85° E 15:43:00 10° N
COSMO-SKYMED 1 3.3 15:33:09 10° N 15:37:24 55° WNW 15:41:38 10° SSW
Cosmos 1758 Rocket 3.7 15:34:04 10° S 15:38:31 80° W 15:43:02 10° N
CSL-04 Debris 4.4 15:33:43 10° SE 15:38:48 45° ENE 15:43:54 10° N
Cosmos 2266 Rocket 4.5 15:37:50 10° SSE 15:43:24 36° E 15:48:55 10° NNE
SL-08 RB Rocket 4.3 15:43:08 31° E 15:43:47 32° ENE 15:47:46 10° N
H-2A R/B 1.9 15:40:27 10° SSE 15:45:28 73° ENE 15:50:40 10° N
Cosmos 1833 Rocket 2.6 15:40:22 10° NNW 15:46:01 88° ENE 15:51:39 10° SSE
Cosmos 1125 Rocket 4.1 15:42:26 10° SSE 15:47:04 33° E 15:47:56 31° E
USA 229 DEB 4.1 15:41:09 10° NW 15:48:31 77° WSW 15:56:15 10° SSE
USA 229 4.1 15:41:15 10° NW 15:48:38 78° WSW 15:56:23 10° SSE
Cosmos 2026 Rocket 4.4 15:42:59 10° SSW 15:49:03 65° W 15:55:16 10° N
Cosmos 2298 Rocket 4.1 15:43:59 10° S 15:49:07 52° ESE 15:52:24 22° NE
USA 290 2.4 15:47:45 10° NNW 15:50:56 69° WSW 15:54:04 10° SSE
Helios 1A Rocket 2.8 15:48:21 10° SSE 15:52:27 69° ENE 15:56:36 10° N
USA 276 3.7 15:52:19 10° SSW 15:54:18 24° SSE 15:54:18 24° SSE
Cosmos 1417 Rocket 4.4 15:49:58 10° N 15:56:14 71° E 16:02:30 10° SSE
Meteor 2-15 Rocket 4.3 15:50:45 10° N 15:56:57 83° E 16:03:05 10° S
Aureole 3 Rocket 4.0 15:54:38 10° NNW 15:57:52 42° W 16:01:55 10° SSW
In-Cosmos 22 Rocket 4.3 15:52:57 10° S 15:58:35 55° E 16:04:08 10° NNE
Cosmos 1553 Rocket 4.0 15:53:01 10° N 15:59:26 87° E 16:05:44 10° S
YAOGAN 1 2.7 15:56:17 10° S 16:00:36 72° W 16:04:55 10° NNW
SJ-11-01 4.2 15:56:10 10° SSE 16:00:51 87° W 16:05:33 10° NNW
Cosmos 1943 Rocket 3.9 15:58:42 10° SSE 16:00:04 16° SE 16:00:04 16° SE
NOSS 3-1 (A) 4.3 15:56:33 10° NW 16:04:17 74° WSW 16:13:05 10° SSE
COSMOS 2406 3.8 15:59:17 10° NNW 16:04:57 58° WSW 16:10:32 10° S
Cosmos 2082 Rocket 2.1 16:00:01 10° NNW 16:05:44 70° ENE 16:09:39 21° SE
Milstar 3 4.5 16:01:24 10° SSW 16:07:50 20° SSE 16:10:49 16° SE
Meteor 1-27 4.2 16:02:59 10° NNW 16:08:37 83° W 16:14:09 10° S
Meteor 2-21 4.4 16:03:53 10° SSE 16:09:46 55° E 16:15:44 10° NNE
Cosmos 1825 Rocket 4.5 16:06:14 10° SSW 16:10:29 48° WNW 16:14:47 10° N
Cosmos 1689 Rocket 3.7 16:09:43 27° NW 16:10:32 33° WNW 16:13:06 10° SW
Cosmos 2315 Rocket 4.4 16:11:44 10° N 16:16:38 40° NE 16:16:38 40° NE
Meteor 2-14 Rocket 4.3 16:11:58 10° S 16:17:54 61° E 16:23:54 10° NNE
Cosmos 883 Rocket 4.5 16:12:57 10° N 16:19:00 54° ENE 16:20:31 44° ESE
CSL-04 Rocket 3.6 16:14:37 10° SSE 16:20:03 86° WSW 16:25:37 10° NNW
USA 234 4.5 16:18:32 23° NNE 16:20:11 25° N 16:25:18 10° NW
X-37B 2.0 16:17:08 10° WNW 16:19:18 38° W 16:19:18 38° W
CZ-4 R/B 3.1 16:17:53 10° SSW 16:21:32 32° W 16:25:09 10° NNW
ISS -1.2 16:19:53 10° NW 16:20:52 15° NNW 16:20:52 15° NNW
Cosmos 1655 Rocket 3.9 16:19:30 10° S 16:25:44 87° W 16:32:00 10° N
S3M 3.9 16:19:42 10° N 16:25:51 85° W 16:31:59 10° S
Okean-O 4.2 16:23:21 10° SSW 16:27:26 36° W 16:31:33 10° NNW
Cosmos 2278 Rocket 3.6 16:25:01 10° WSW 16:30:11 36° WNW 16:35:18 10° N
Meteor 2-21 Rocket 4.3 16:26:49 10° S 16:41:19 - NNE 16:32:30 63° ESE
Cosmos 44 Rocket 4.0 16:39:04 10° SW 16:43:50 50° NW 16:44:33 46° NNW
ARGOS 4.1 16:40:23 10° S 16:45:31 46° W 16:50:42 10° NNW
Meteor 2-2 Rocket 4.3 16:43:18 10° NNW 16:49:18 82° W 16:51:14 46° S
CZ-2C R/B 3.4 16:52:21 11° N 16:57:39 53° WNW 17:03:05 10° SW
Cosmos 2297 4.3 17:04:50 10° SW 17:09:22 52° WSW 17:09:22 52° WSW
